Location: Sibbertoft
(52.4361°N, 1.0300°W)
Time: 12:23:26
(UTC+00:00)

Tiangong 2 - Visible Passes

Search period start: 22 January 2019 00:00
Search period end: 01 February 2019 00:00
Orbit: 380 x 392 km, 42.8° (Epoch: 21 January)

Date Brightness Start Highest point End Pass type
(mag) Time Alt. Az. Time Alt. Az. Time Alt. Az.
22 Jan 3.5 06:04:58 13° SSW 06:05:59 15° S 06:07:54 10° SSE visible
23 Jan 4.1 05:08:42 12° SSE 05:08:42 12° SSE 05:09:08 10° SE visible
23 Jan 3.7 06:42:03 10° SW 06:43:12 11° SSW 06:44:20 10° S visible
24 Jan 3.6 05:44:39 13° S 05:44:39 13° S 05:46:07 10° SSE visible
